Flag for India Weather past 2 weeks in Gurgaon, Haryana, India

86 °F


Feels Like: 93 °F
Forecast: 76 / 94 °F
Wind: 8 mph from East

Location: New Delhi Palam Airport

Current Time: Oct 13, 2015 at 10:23:09 PM

Latest Report: Oct 13, 2015 at 9:30 PM

Visibility: 2 mi

Pressure: 29.92 "Hg

Humidity: 66%

Dew point: 73 °F

Location of GurgaonLocation

Historic Weather in Gurgaon — Graph


Gurgaon temperature yesterday

Maximum temperature yesterday: 97 °F (at 2:30 PM)
Minimum temperature yesterday: 73 °F (at 1:30 AM)
Average temperature yesterday: 85 °F

Past Weeks' High & Low Weather Summary

High99 °F (Oct 4, 1:30 PM)94% (Oct 8, 6:00 AM)29.98 "Hg (Oct 8, 6:00 AM)
Low70 °F (Sep 30, 5:30 AM)19% (Oct 10, 2:30 PM)29.65 "Hg (Oct 9, 2:00 PM)
Average85 °F52%29.84 "Hg
* Reported Sep 28 8:30 PM — Oct 13 9:00 PM, Gurgaon, Weather by CustomWeather, © 2015

Note: Actual official high and low records may vary slightly from our data, if they occured in-between our weather recording intervals... More about our weather records


Gurgaon weather history for previous 24 hours

Time TempWeatherWind HumidityBarometerVisibility
9:00 PM
Tue, Oct 13
84 °FHaze.8 mph66%29.92 "Hg2 mi
8:30 PM86 °FHaze.5 mph62%29.89 "Hg2 mi
8:00 PM86 °FHaze.5 mph62%29.89 "Hg2 mi
7:30 PM88 °FHaze.7 mph59%29.86 "Hg2 mi
7:00 PM88 °FHaze.7 mph59%29.86 "Hg2 mi
6:30 PM88 °FHaze.7 mph59%29.86 "Hg2 mi
6:00 PM90 °FScattered clouds.6 mph52%29.86 "Hg2 mi
5:30 PM91 °FScattered clouds.5 mph49%29.86 "Hg2 mi
5:00 PM93 °FScattered clouds.3 mph44%29.83 "Hg2 mi
4:30 PM93 °FScattered clouds.3 mph44%29.83 "Hg2 mi
4:00 PM93 °FScattered clouds.3 mph44%29.86 "Hg2 mi
3:30 PM93 °FScattered clouds.5 mph44%29.86 "Hg2 mi
3:00 PM93 °FScattered clouds.5 mph44%29.86 "Hg2 mi
2:30 PM91 °FScattered clouds.7 mph46%29.86 "Hg2 mi
1:30 PM93 °FPartly sunny.7 mph49%29.86 "Hg2 mi
1:00 PM95 °FScattered clouds.6 mph47%29.89 "Hg2 mi
12:30 PM95 °FHaze.5 mph47%29.92 "Hg1 mi
12:00 PM93 °FHaze.5 mph49%29.92 "Hg1 mi
11:30 AM91 °FHaze.6 mph52%29.92 "Hg1 mi
11:00 AM90 °FClear.5 mph55%29.95 "Hg1 mi
10:30 AM88 °FFog.6 mph62%29.95 "Hg1 mi
10:00 AM86 °FClear.5 mph66%29.95 "Hg1 mi
9:30 AM84 °FWarm.5 mph70%29.95 "Hg1 mi
8:30 AM81 °FFog.5 mph79%29.95 "Hg1 mi
8:00 AM79 °FScattered clouds.5 mph84%29.92 "Hg1 mi
7:00 AM75 °FFog.6 mph94%29.92 "Hg1 mi
6:30 AM75 °FFog.6 mph94%29.89 "Hg1 mi
6:00 AM75 °FFog.6 mph89%29.89 "Hg1 mi
5:30 AM75 °FFog.6 mph89%29.86 "Hg1 mi
5:00 AM77 °FFog.7 mph83%29.86 "Hg1 mi
4:30 AM77 °FFog.7 mph83%29.86 "Hg1 mi
4:00 AM77 °FFog.8 mph79%29.86 "Hg1 mi
3:30 AM79 °FHaze.5 mph65%29.86 "Hg1 mi
3:00 AM79 °FHaze.6 mph65%29.86 "Hg1 mi
2:30 AM79 °FHaze.6 mph65%29.86 "Hg1 mi
2:00 AM81 °FHaze.No wind62%29.86 "Hg1 mi
1:30 AM82 °FHaze.No wind62%29.86 "Hg1 mi
1:00 AM82 °FHaze.No wind62%29.86 "Hg1 mi
12:30 AM82 °FHaze.No wind62%29.86 "Hg1 mi
12:00 AM84 °FHaze.No wind58%29.89 "Hg1 mi
11:30 PM
Mon, Oct 12
84 °FHaze.No wind55%29.89 "Hg1 mi
11:00 PM84 °FHaze.No wind55%29.89 "Hg1 mi
10:30 PM84 °FHaze.No wind55%29.89 "Hg2 mi
10:00 PM84 °FPassing clouds.No wind55%29.86 "Hg2 mi
Weather by CustomWeather, © 2015

See weather overviewHow to use our weather pages